Regional Weather Roundup
Issued by NWS Grand Forks, ND

Home | Current Version | Previous Version | Text Only | Print | Product List | Glossary On
Versions: 1 2 3 4 5 6 7 8 9 10 11 12 13 14 15 16 17 18 19 20 21 22 23 24 25 26 27 28 29 30 31 32 33 34 35 36 37 38 39 40 41 42 43 44 45 46 47 48 49 50
000
ASUS43 KFGF 242031
RWRFGF
PRAIRIE TO PINES  WEATHER ROUNDUP
NATIONAL WEATHER SERVICE EASTERN NORTH DAKOTA/GRAND FORKS ND
300 PM CDT SUN SEP 24 2017

 **SATELLITE DATA USED TO AUGMENT SKY COVER AT AUTOMATED STATIONS**
 *****  WEATHER ACROSS EASTERN NORTH DAKOTA  *****

CITY           SKY/WX    TMP DP  RH WIND       PRES   REMARKS
GRAND FORKS    LGT RAIN  53  53 100 N15       29.87S
GRAND FRKS AFB LGT RAIN  54  54 100 N13G20    29.91R
DEVILS LAKE    CLOUDY    49  47  93 N14       29.97R
FARGO          LGT RAIN  56  55  97 N13       29.86R
WAHPETON ARPT  CLOUDY    55  54  94 NW12      29.89R
$$

 ***** WEATHER ACROSS CENTRAL AND WESTERN NORTH DAKOTA  *****

CITY           SKY/WX    TMP DP  RH WIND       PRES   REMARKS
BISMARCK       CLOUDY    51  48  89 NW13      30.04R
MINOT          CLOUDY    52  46  80 NW12      30.04S
JAMESTOWN      CLOUDY    51  49  92 NW16G23   29.95R
MINOT AFB      CLOUDY    50  45  81 N12       30.03S
GARRISON         N/A     48  44  86 N13       30.05R
WILLISTON      CLOUDY    48  41  76 N9        30.11S
DICKINSON      CLOUDY    47  42  83 N8        30.06S
HETTINGER      CLOUDY    47  43  86 N14       30.07F
$$

 *****  OTHER AIRPORT OBSERVATIONS IN OUR AREA  *****

CITY           SKY/WX    TMP DP  RH WIND       PRES   REMARKS
WALHALLA       RAIN     N/A N/A N/A N17       29.93R
GRAFTON AIRPOR NOT AVBL
VALLEY CITY AR NOT AVBL
CANDO          MOCLDY    48  48 100 N12G21    30.02R FOG
CAVALIER APRT  LGT RAIN  50  50 100 N14       29.92R
GWINNER        CLOUDY    54  54 100 NW12      29.90S FOG
ROLLA          CLOUDY    46  46 100 N14       30.01R
 ***** THE ABOVE OBSERVATIONS ARE NON NWS ARE NOT QUALITY
       CONTROLLED AND MAY MIS-REPORT RAIN FOR SNOW...
$$

  *****  WEATHER ACROSS NORTHERN MINNESOTA  *****

CITY           SKY/WX    TMP DP  RH WIND       PRES   REMARKS
FLAG ISLAND    RAIN      57  55  94 N8        29.79F
WARROAD        NOT AVBL
ROSEAU         RAIN      55  52  88 W5        29.85R
HALLOCK        RAIN      54  52  94 NW12G20   29.88R
THF RVR FALLS  LGT RAIN  57  55  94 NW10      29.84F
BAUDETTE       CLOUDY    62  62 100 CALM      29.81S
WASKISH        CLOUDY    68  64  88 CALM      29.80S
CROOKSTON      DRIZZLE   54  54 100 N13G18    29.86R
STEPHEN NDAWN    N/A     54  52  94 N14         N/A
GREENBUSH NDAW   N/A     54  54 100 NW5         N/A
$$
  *****  WEATHER ACROSS CENTRAL AND WEST MINNESOTA  *****

CITY           SKY/WX    TMP DP  RH WIND       PRES   REMARKS
FOSSTON        LGT RAIN  59  57  94 W8        29.84R
BEMIDJI        CLOUDY    71  66  85 SW8       29.81S
PARK RAPIDS    PTSUNNY   76  67  73 SW10      29.82F
ELBOW LAKE     HVY RAIN  67  64  91 NW10      29.85R
WADENA         FAIR      73  66  78 SW7       29.82F
DETROIT LAKES  CLOUDY    66  61  82 W9        29.84F
MOORHEAD       LGT RAIN  55  54  94 NW7       29.88R
FERGUS FALLS   CLOUDY    63  63 100 W12G17    29.85R
MORRIS MN      NOT AVBL
STAPLES        PTSUNNY   75  66  73 W14       29.82S
$$
  *****  WEATHER ELSEWHERE ACROSS MINNESOTA  *****

CITY           SKY/WX    TMP DP  RH WIND       PRES   REMARKS
DULUTH         FAIR      79  69  71 S9        29.90F
INTRNTL FALLS  PTSUNNY   72  65  78 SW5       29.80F
ELY            FAIR      81  64  57 S12G20    29.87F
CLOQUET        FAIR      82  63  51 S10       29.88F
WHEATON        LGT RAIN  64  61  88 W7        29.88R
BRAINERD       FAIR      81  67  62 S14G23    29.83F
HIBBING        PTSUNNY   79  65  62 SW8       29.85F
ALEXANDRIA     FAIR      74  69  85 W7        29.85F
SAINT CLOUD    FAIR      85  68  56 S15G26    29.84F
MINNEAPOLIS    PTSUNNY   89  63  41 S15G24    29.87F HX  90
$$

  *****  WEATHER ACROSS SOUTH DAKOTA  *****

CITY           SKY/WX    TMP DP  RH WIND       PRES   REMARKS
SIOUX FALLS    CLOUDY    68  61  78 W9        29.90R
BROOKINGS      PTSUNNY   61  57  88 W13       29.92S
WATERTOWN      LGT RAIN  58  57  97 W13       29.90R
HURON          LGT RAIN  55  54  96 NW7       29.96R
SISSETON         N/A     63  60  90 NW9       29.86F
ABERDEEN       CLOUDY    54  53  97 N12       29.92F
MITCHELL       LGT RAIN  58  55  90 NW12      29.95S
PIERRE         CLOUDY    55  48  77 NW15      29.98S
MOBRIDGE       CLOUDY    53  48  83 NW15G22   29.97S
RAPID CITY     CLOUDY    50  43  76 N16       30.07S
$$

  *****  SOME WEATHER IN NEARBY STATES *****

CITY           SKY/WX    TMP DP  RH WIND       PRES   REMARKS
GLASGOW MT     CLOUDY    52  37  56 CALM      30.10F
GREAT FALLS MT FAIR      56  28  34 MISG      30.07F
CHEYENNE WY    CLOUDY    44  41  89 E12       30.01F
SCOTTSBLUFF NE CLOUDY    54  42  64 NE10      30.02F
OMAHA NE       HVY RAIN  75  67  76 W9G35     29.87F
DES MOINES IA  FAIR      89  62  40 S10       29.92F
DAVENPORT IA   FAIR      88  62  41 SW9       30.01F
CHICAGO IL     FAIR      91  58  32 SE9       30.02F HX  90
EAU CLAIRE WI  FAIR      88  61  40 S14       29.94F
LA CROSSE WI   FAIR      93  60  33 S15       29.95F HX  93
$$

  *****  SOME NATIONAL WEATHER *****

CITY           SKY/WX    TMP DP  RH WIND       PRES   REMARKS
LA GUARDIA NY  FAIR      90  64  42 N5        30.01F HX  91
RALEIGH NC     PTSUNNY   85  56  37 NE12      30.01F
ATLANTA GA     PTSUNNY   83  64  52 E15       30.04F
NEW ORLEANS LA PTSUNNY   87  70  56 E14       29.89F HX  92
OKLAHOMA CITY  PTSUNNY   86  62  44 S15       29.89F
ALBUQUERQUE NM FAIR      70  23  17 S14G21    29.94F
SALT LAKE CITY RAIN      46  43  89 NW10      30.00R FOG
LOS ANGELES CA FAIR      76  55  48 W13       29.87F
BOISE ID       FAIR      62  31  31 NW13G24   30.02F
SEATTLE WA     FAIR      65  51  60 W8        30.14F
$$

*** WEATHER ACROSS MANITOBA...SASKATCHEWAN AND ONTARIO ***
                ***ONTARIO***

CITY           SKY/WX    TMP DP  RH WIND       PRES   REMARKS
GERALDTON      PTSUNNY   77  70  78 S7        29.90F
THUNDER BAY    PTSUNNY   73  66  78 NE7       29.90F
SIOUX LOOKOUT  CLOUDY    64  63  94 S5        29.81S FOG
TORONTO        MOSUNNY   91  66  43 S8        30.09F HX  94
BIG TROUT LK   RAIN      46  46 100 NE9       30.03F
PICKLE LAKE    LGT RAIN  52  52 100 NE7       29.88S FOG
DRYDEN         RAIN      63  63 100 SW9G17    29.81F FOG
KENORA         LGT RAIN  55  55 100 N6        29.82F FOG
$$
                *** MANITOBA***

CITY           SKY/WX    TMP DP  RH WIND       PRES   REMARKS
BRANDON        LGT RAIN  50  45  81 N12G18    30.02S
DAUPHIN        PTSUNNY   52  48  87 N12       30.04S
ISLAND LAKE    LGT RAIN  45  43  93 N9        30.07F
PILOT MOUND      N/A     46  45  93 N14         N/A
THE PAS        PTSUNNY   50  41  71 NE3       30.12F
THOMPSON       LGT RAIN  43  39  87 NE7       30.17F FOG
WINNIPEG       LGT RAIN  50  48  93 N16       29.90F FOG
LYNN LAKE      PTSUNNY   45  37  76 SE6       30.16F
CHURCHILL      PTSUNNY   43  28  56 N3        30.24S
GILLAM         CLOUDY    43  34  70 NE8       30.19F
$$
                ***SASKATCHEWAN***

CITY           SKY/WX    TMP DP  RH WIND       PRES   REMARKS
ESTEVAN        CLOUDY    50  41  71 N9        30.08S
KINDERSLEY     MOSUNNY   57  34  41 S8        30.06F
LLOYDMINSTER   CLOUDY    55  37  50 S12       30.03F
PRINCE ALBERT  PTSUNNY   54  36  50 VRB3      30.11F
REGINA         PTSUNNY   54  32  43 N8        30.09F
YORKTON        CLOUDY    52  39  62 NW9       30.08S
N. BATTLEFORD  PTSUNNY   57  36  44 S7        30.08F
LA RONGE       MOSUNNY   54  41  62 SE8       30.09F
SASKATOON      PTSUNNY   57  37  47 SW8       30.09F
SWIFT CURRENT    N/A     54  34  47 S9G17     30.07F
$$
NOTE: THESE ARE AUTOMATED STATIONS WITH LIMITED QUALITY CONTROL
      "FAIR" INDICATES FEW OR NO CLOUDS BELOW 12,000 FEET WITH NO
      SIGNIFICANT WEATHER AND/OR OBSTRUCTIONS TO VISIBILITY.
      SKY/WX - SKY CONDITION AND SIGNIFICANT WEATHER.
      TMP - AIR TEMPERATURE.    DP   - DEWPOINT TEMPERATURE.
      RH  - RELATIVE HUMIDITY.  PRES - PRESSURE.
      HX  - HEAT INDEX.         WCI  - WIND CHILL INDEX.
$




USA.gov is the U.S. government's official web portal to all federal, state and local government web resources and services.